This is the latest recevied weather packets stored in our database for station/object SP2FH-13. If no packets are shown the sender has not sent any weather packets the latest 10 day(s).
| Time | Temp. | Humidity | Pressure | Rain* | Wind** | Luminosity | Snow |
|---|---|---|---|---|---|---|---|
| 1777354246 | 2.78° C | 78% | 1015.2 hPa | - | - | 150 W/m² | - |
| 1777353945 | 2.78° C | 79% | 1015.1 hPa | - | - | 125 W/m² | - |
| 1777353643 | 2.22° C | 80% | 1015 hPa | - | - | 128 W/m² | - |
| 1777353342 | 2.22° C | 82% | 1015 hPa | - | - | 122 W/m² | - |
| 1777353041 | 1.67° C | 82% | 1015 hPa | - | - | 115 W/m² | - |
| 1777352740 | 1.67° C | 83% | 1015 hPa | - | - | 103 W/m² | - |
| 1777352439 | 1.11° C | 83% | 1015.1 hPa | - | - | 97 W/m² | - |
| 1777352138 | 0.56° C | 83% | 1015.1 hPa | - | - | 93 W/m² | - |
| 1777351837 | 0.56° C | 84% | 1015 hPa | - | - | 88 W/m² | - |
| 1777351236 | -0.56° C | 85% | 1014.8 hPa | - | - | 76 W/m² | - |
| 1777350935 | -0.56° C | 85% | 1014.8 hPa | - | - | 55 W/m² | - |
| 1777350633 | -1.11° C | 85% | 1014.7 hPa | - | - | 67 W/m² | - |
| 1777350332 | -1.11° C | 85% | 1014.7 hPa | - | - | 61 W/m² | - |
| 1777350030 | -1.67° C | 86% | 1014.7 hPa | - | - | 61 W/m² | - |
| 1777349729 | -1.67° C | 87% | 1014.7 hPa | - | - | 44 W/m² | - |
| 1777349427 | -1.67° C | 86% | 1014.6 hPa | - | - | 28 W/m² | - |
| 1777349126 | -1.67° C | 87% | 1014.7 hPa | - | - | 24 W/m² | - |
| 1777348825 | -1.67° C | 86% | 1014.6 hPa | - | - | 21 W/m² | - |
| 1777348524 | -1.67° C | 86% | 1014.6 hPa | - | - | 18 W/m² | - |
| 1777348223 | -1.67° C | 86% | 1014.6 hPa | - | - | 15 W/m² | - |
| 1777347921 | -1.67° C | 86% | 1014.5 hPa | - | - | 12 W/m² | - |
| 1777347620 | -2.22° C | 85% | 1014.5 hPa | - | - | 9 W/m² | - |
| 1777347319 | -1.67° C | 85% | 1014.5 hPa | - | - | 7 W/m² | - |
| 1777347018 | -1.67° C | 85% | 1014.5 hPa | - | - | 5 W/m² | - |
| 1777346717 | -1.67° C | 85% | 1014.5 hPa | - | - | 4 W/m² | - |
* Rain since midnight (hover to see other rain measurements)
** Current wind speed in m/s (hover to see current wind gust speed)